Flag for Germany Weather past 2 weeks in Rendsburg, Schleswig-Holstein, Germany

Now
43 °F

Fog.


Feels Like: 43 °F
Forecast: 55 / 68 °F
Wind: 1 mph from Southeast

Location: Hohn

Current Time: Aug 28, 2014 at 6:03:34 AM

Latest Report: Aug 28, 2014 at 5:20 AM


Visibility: 0 mi

Pressure: 30.04 "Hg

Humidity: 93%

Dew point: 41 °F

Location of RendsburgLocation

Historic Weather in Rendsburg — Graph

°F

Rendsburg temperature yesterday

Maximum temperature yesterday: 70 °F (at 3:20 PM)
Minimum temperature yesterday: 39 °F (at 6:20 AM)
Average temperature yesterday: 54 °F

Past Weeks' High & Low Weather Summary

 TemperatureHumidityPressure
High70 °F (Aug 13, 2:20 PM)100% (Aug 26, 5:20 AM)30.04 "Hg (Aug 26, 5:20 AM)
Low37 °F (Aug 26, 5:20 AM)46% (Aug 13, 3:20 PM)29.42 "Hg (Aug 18, 9:20 AM)
Average56 °F80%29.78 "Hg
* Reported Aug 13 4:20 AM — Aug 28 4:20 AM, Rendsburg, Weather by CustomWeather, © 2014

Note: Actual official high and low records may vary slightly from our data, if they occured in-between our weather recording intervals... More about our weather records

Advertising

Rendsburg weather history for previous 24 hours

 ConditionsComfort  
Time TempWeatherWind HumidityBarometerVisibility
4:20 AM
Aug 28
43 °FFog.1 mph93%30.04 "Hg0 mi
3:20 AM43 °FFog.No wind100%30.04 "Hg0 mi
2:20 AM45 °FFog.No wind93%30.04 "Hg0 mi
1:20 AM46 °FFog.2 mph93%30.04 "Hg0 mi
12:52 AM48 °FFog.2 mph94%30.04 "Hg2 mi
12:20 AM48 °FFog.1 mph94%30.04 "Hg3 mi
11:20 PM
Aug 27
50 °FFog.6 mph94%30.04 "HgN/A
10:20 PM52 °FPassing clouds.6 mph94%30.04 "HgN/A
9:20 PM54 °FPassing clouds.5 mph94%30.04 "HgN/A
8:20 PM59 °FPassing clouds.7 mph77%30.01 "HgN/A
7:20 PM64 °FPassing clouds.9 mph64%30.01 "HgN/A
6:20 PM66 °FPassing clouds.10 mph52%30.01 "HgN/A
5:20 PM68 °FPassing clouds.13 mph49%30.01 "HgN/A
4:20 PM70 °FPassing clouds.12 mph46%30.01 "HgN/A
3:20 PM70 °FScattered clouds.10 mph50%30.01 "HgN/A
2:20 PM68 °FScattered clouds.9 mph49%30.01 "HgN/A
1:20 PM68 °FScattered clouds.8 mph49%30.01 "HgN/A
12:20 PM66 °FPassing clouds.10 mph52%30.01 "HgN/A
11:20 AM64 °FPassing clouds.7 mph56%29.98 "HgN/A
10:20 AM61 °FPassing clouds.6 mph68%29.98 "HgN/A
9:20 AM57 °FPassing clouds.3 mph77%29.98 "HgN/A
8:20 AM48 °FFog.3 mph94%29.95 "Hg2 mi
7:20 AM41 °FFog.2 mph93%29.95 "Hg1 mi
6:53 AM41 °FFog.3 mph93%29.92 "Hg1 mi
6:20 AM39 °FFog.2 mph93%29.92 "Hg1 mi
Weather by CustomWeather, © 2014

See weather overviewHow to use our weather pages